This is the latest recevied weather packets stored in our database for station/object KC4GS-13. If no packets are shown the sender has not sent any weather packets the latest 10 day(s).
| Time | Temp. | Humidity | Pressure | Rain* | Wind** | Luminosity | Snow |
|---|---|---|---|---|---|---|---|
| 1788529507 | 26.11° C | 93% | 1019.1 hPa | 0 mm | - | 146 W/m² | - |
| 1788529201 | 26.11° C | 93% | 1019.2 hPa | 0 mm | - | 152 W/m² | - |
| 1788528896 | 25.56° C | 93% | 1019.2 hPa | 0 mm | - | 150 W/m² | - |
| 1788528592 | 25.56° C | 93% | 1019.3 hPa | 0 mm | - | 150 W/m² | - |
| 1788528292 | 25.56° C | 93% | 1019.3 hPa | 0 mm | - | 135 W/m² | - |
| 1788527986 | 25.56° C | 94% | 1019.3 hPa | 0 mm | - | 124 W/m² | - |
| 1788527682 | 25° C | 94% | 1019.2 hPa | 0 mm | - | 105 W/m² | - |
| 1788527377 | 25° C | 94% | 1019.4 hPa | 0 mm | - | 98 W/m² | - |
| 1788527076 | 25° C | 94% | 1019.2 hPa | 0 mm | - | 88 W/m² | - |
| 1788526771 | 25° C | 94% | 1019.4 hPa | 0 mm | - | 78 W/m² | - |
| 1788526468 | 25° C | 94% | 1019.3 hPa | 0 mm | - | 72 W/m² | - |
| 1788526167 | 25° C | 95% | 1019.2 hPa | 0 mm | - | 76 W/m² | - |
| 1788525863 | 25° C | 95% | 1019 hPa | 0 mm | - | 75 W/m² | - |
| 1788525558 | 24.44° C | 95% | 1019 hPa | 0 mm | - | 79 W/m² | - |
| 1788525253 | 24.44° C | 95% | 1019 hPa | 0 mm | - | 76 W/m² | - |
| 1788524948 | 24.44° C | 95% | 1019.2 hPa | 0 mm | - | 71 W/m² | - |
| 1788524648 | 23.89° C | 95% | 1019.2 hPa | 0 mm | - | 55 W/m² | - |
| 1788524342 | 23.89° C | 95% | 1018.7 hPa | 0 mm | - | 52 W/m² | - |
| 1788524039 | 23.33° C | 95% | 1019.1 hPa | 0 mm | - | 44 W/m² | - |
| 1788523735 | 23.33° C | 95% | 1018.9 hPa | 0 mm | - | 45 W/m² | - |
| 1788523431 | 23.33° C | 95% | 1019 hPa | 0 mm | - | 40 W/m² | - |
| 1788523126 | 22.78° C | 95% | 1018.8 hPa | 0 mm | - | 46 W/m² | - |
| 1788522821 | 22.78° C | 95% | 1019 hPa | 0 mm | - | 31 W/m² | - |
| 1788522516 | 22.78° C | 95% | 1019.2 hPa | 0 mm | - | 32 W/m² | - |
| 1788522210 | 22.22° C | 95% | 1018.9 hPa | 0 mm | - | 25 W/m² | - |
* Rain latest hour (hover to see other rain measurements)
** Current wind speed in m/s (hover to see current wind gust speed)